Zurück zum Katalog

FENGYUN 1C DEB

AktivSSO
NORAD 29931·DEBRIS·🇨🇳 China

Gestartet May 10, 1999 von Taiyuan Satellite Launch Center

Loading…

Nächste Überflüge (nächste 24 Stunden)

TLE

AktuellSource: Space-Track

Epoche: Sep 14, 2026, 22:30 UTC

1 29931U 99025JD  26257.93768728 -.00000109  00000-0 -41798-4 0  9996
2 29931  98.8290 290.8205 0032495  43.3755  76.3350 14.04027573  6876

Verfolge FENGYUN 1C DEB in Echtzeit mit AllMySat

Download on the App Store